Starlink 30592

operational
NORAD ID: 58102 Int'l Des: 2023-161 Owner: SPXS Country: US Constellation: starlink
LEOCIRCULAR

Über Starlink 30592

Beschreibung wird geladen...

Live-Position

3D-Globus wird geladen...

Nächste Überflüge

Höhenverlauf

Altitude vs Time

uPlot chart will show altitude changes over time

Zweizeiliger Elementsatz

1 58102U 23161F 25302.47197242 .00000735 00000-0 36934-4 0 9991
2 58102 53.1619 54.8815 0001135 82.0132 278.0997 15.30198061114338
Epoch: 29. Okt. 2025 • Age: 15 hours

Aktueller Status

Höhe 494.0 km
Geschwindigkeit 7.62 km/s
Subsatellitenpunkt -52.02°S, 99.21°W
Startdatum 21. Okt. 2023
Alter 2 years
Typ internet

Technische Details

Klassifizierung Payload
Masse 730.00 kg
Trockenmasse 700.00 kg
Gesamtmasse 730.00 kg
Länge 0.30 m
Durchmesser 4.10 m
Spannweite 29.00 m
Form Box + pan
Hersteller SPXS
Bus-Typ Starlink V2M
Phasenstatus In Orbit
Besitzer/Staat SPXS/US

Große Konstellationen

Loading constellations...